Racine, WI

2:36 PM CDT on July 21, 2017 (GMT -0500)
Batten

Weather History for KRAC - October, 2011

Change the Weather History Date:

Monday, October 31, 2011

  Actual Average Record
Temperature  
Mean Temperature 43 °F -  
Max Temperature 50 °F 55 °F 82 °F (1950)
Min Temperature 36 °F 42 °F 22 °F (1954)
Degree Days  
Heating Degree Days 22    
Moisture  
Dew Point 38 °F    
Average Humidity 83    
Maximum Humidity 100    
Minimum Humidity 61    
Precipitation  
Precipitation 0.00 in - - ()
Sea Level Pressure  
Sea Level Pressure 30.05 in    
Wind  
Wind Speed 5 mph (WSW)    
Max Wind Speed 8 mph    
Max Gust Speed -    
Visibility 8 miles    
Events      
Averages and records for this station are not official NWS values.
T = Trace of Precipitation, MM = Missing Value Source: NWS Daily Summary

Daily Weather History Graph

Daily Weather History Graph

Search for Another Location

Airport or City:

Trip Planner

Search our weather history database for the weather conditions in past years. The results will help you decide how hot, cold, wet, or windy it might be!

Date:

Astronomy

Oct. 31, 2011 Rise Set
Actual Time 7:23 AM CDT 5:45 PM CDT
Civil Twilight 6:54 AM CDT 6:14 PM CDT
Nautical Twilight 6:21 AM CDT 6:47 PM CDT
Astronomical Twilight 5:48 AM CDT 7:20 PM CDT
Moon 12:33 PM CDT (10/31) 10:18 PM CDT (10/31)
Length of Visible Light 11h 20m
Length of Day
10h 21m
Waxing Crescent, 30% of the Moon is Illuminated
Oct 31
Waxing Crescent
Nov 2
First Quarter
Nov 10
Full
Nov 18
Last Quarter
Nov 25
New

Hourly Weather History & Observations

Time (CDT) Temp. Windchill Dew Point Humidity Pressure Visibility Wind Dir Wind Speed Gust Speed Precip Events Conditions
12:53 AM 42.1 °F 37.1 °F 39.9 °F 92% 29.97 in 7.0 mi SSW 8.1 mph - N/A   Clear
1:53 AM 39.9 °F 36.7 °F 39.0 °F 97% 29.97 in 8.0 mi SSW 4.6 mph - N/A   Clear
2:53 AM 39.0 °F 34.8 °F 37.9 °F 96% 29.98 in 5.0 mi SW 5.8 mph - N/A   Clear
3:53 AM 39.0 °F 35.7 °F 37.9 °F 96% 29.98 in 5.0 mi WSW 4.6 mph - N/A   Clear
4:53 AM 37.0 °F 34.5 °F 37.0 °F 100% 29.99 in 6.0 mi WSW 3.5 mph - N/A   Clear
5:53 AM 37.0 °F 34.5 °F 36.0 °F 96% 30.00 in 7.0 mi West 3.5 mph - N/A   Clear
6:53 AM 36.0 °F 31.1 °F 35.1 °F 97% 30.01 in 7.0 mi West 5.8 mph - N/A   Clear
7:53 AM 36.0 °F 31.1 °F 34.0 °F 93% 30.02 in 6.0 mi West 5.8 mph - N/A   Partly Cloudy
8:53 AM 37.9 °F 33.5 °F 36.0 °F 93% 30.03 in 7.0 mi West 5.8 mph - N/A   Clear
9:53 AM 42.1 °F 39.2 °F 37.9 °F 85% 30.04 in 8.0 mi West 4.6 mph - N/A   Clear
10:53 AM 46.0 °F 44.8 °F 39.9 °F 79% 30.05 in 8.0 mi Variable 3.5 mph - N/A   Clear
11:53 AM 48.9 °F - 39.9 °F 71% 30.05 in 8.0 mi SW 4.6 mph - N/A   Scattered Clouds
12:01 PM 48.2 °F - 39.2 °F 71% 30.04 in 9.0 mi Variable 5.8 mph - N/A   Mostly Cloudy
12:39 PM 50.0 °F - 39.2 °F 66% 30.03 in 10.0 mi SW 5.8 mph - N/A   Mostly Cloudy
12:53 PM 48.9 °F - 39.0 °F 69% 30.05 in 10.0 mi WSW 8.1 mph - N/A   Mostly Cloudy
1:53 PM 50.0 °F - 37.0 °F 61% 30.04 in 10.0 mi West 5.8 mph - N/A   Overcast
2:53 PM 48.0 °F - 37.0 °F 66% 30.05 in 10.0 mi WNW 5.8 mph - N/A   Overcast
3:53 PM 48.0 °F - 37.0 °F 66% 30.07 in 10.0 mi West 6.9 mph - N/A   Overcast
5:53 PM 46.9 °F - 37.9 °F 71% 30.11 in 10.0 mi WSW 3.5 mph - N/A   Overcast
7:53 PM 46.0 °F - 37.9 °F 73% 30.14 in 10.0 mi Calm Calm - N/A   Overcast
8:53 PM 45.0 °F 43.5 °F 37.9 °F 76% 30.15 in 10.0 mi SW 3.5 mph - N/A   Overcast
9:53 PM 43.0 °F 41.3 °F 37.0 °F 80% 30.15 in 10.0 mi SSW 3.5 mph - N/A   Partly Cloudy
10:53 PM 39.0 °F 36.8 °F 37.0 °F 93% 30.16 in 8.0 mi SSW 3.5 mph - N/A   Clear
11:53 PM 37.9 °F - 36.0 °F 93% 30.15 in 6.0 mi Calm Calm - N/A   Clear